Location: Milano
(45.4670°N, 9.2000°E)
Time: 20:19:52
(UTC+02:00)

ISS - Pass Details

Date: 17 May 2021
Orbit: 417 x 422 km, 51.6° (Epoch: 14 June)

Event Time Altitude Azimuth Distance (km) Brightness Sun altitude
Rises 02:03:57 0° 297° (WNW) 2,372 0.3 -24.4°
Reaches altitude 10° 02:06:09 10° 306° (NW) 1,507 -0.7 -24.3°
Maximum altitude 02:09:20 37° 16° (NNE) 672 -2.2 -24.2°
Drops below altitude 10° 02:12:31 10° 86° (E) 1,506 -0.8 -24.1°
Sets 02:14:43 0° 95° (E) 2,370 0.2 -24.0°
